User: anonymous   Login
Location: Gerlach
(40.6516°N, 119.3568°W)
Time: 00:39:33
(UTC-08:00)
Language:

Tiros 1 - Orbit

View from above orbital plane
View from above orbital plane
View from above satellite
View from above satellite

Ground track
Ground track

The orbit data is extracted from the following two-line orbital elements,

1    29U 60002B   24063.20656215  .00001109  00000-0  18856-3 0  9993
2    29  48.3803  30.5053 0023884 273.4790  86.3391 14.76047757418610
Epoch (UTC): 03 March 2024 04:57:26
Eccentricity: 0.0023884
inclination: 48.3803°
perigee height: 625 km
apogee height: 658 km
right ascension of ascending node: 30.5053°
argument of perigee: 273.4790°
revolutions per day: 14.76047757
mean anomaly at epoch: 86.3391°
orbit number at epoch: 41861

The dashed part of the orbit path shows where the satellite is in the earth's shadow,  

DLR